FW5486 Weather Reports


Display with metric or nautical units.
time (UTC)temp
F
wind
direction
speed
MPH
gust
MPH
rain 1hr
in
rain 24hr
in
rain mn
in
humidity
%
barometer
mb
20260503212700 78 91 1.0 4.0 0.00 0.00 0.00 36 1020.3
20260503212159 77 136 2.0 7.0 0.00 0.00 0.00 37 1020.4
20260503211700 77 75 2.0 9.0 0.00 0.00 0.00 36 1020.5
20260503211158 77 107 2.0 9.0 0.00 0.00 0.00 39 1020.6
20260503210929 77 84 5.0 12.0 0.00 0.00 0.00 37 1020.6
20260503210150 77 74 3.0 12.0 0.00 0.00 0.00 37 1020.7
20260503205650 77 0 1.0 3.0 0.00 0.00 0.00 39 1020.7
20260503205150 77 282 2.0 5.0 0.00 0.00 0.00 35 1020.7
20260503204650 77 184 3.0 9.0 0.00 0.00 0.00 39 1020.8
20260503204149 77 69 3.0 9.0 0.00 0.00 0.00 37 1020.8
20260503203647 76 128 3.0 9.0 0.00 0.00 0.00 35 1020.9
20260503203145 76 98 3.0 10.0 0.00 0.00 0.00 36 1021.0
20260503202913 77 16 4.0 10.0 0.00 0.00 0.00 37 1021.2
20260503202144 77 84 3.0 8.0 0.00 0.00 0.00 36 1021.3
20260503201642 77 190 3.0 9.0 0.00 0.00 0.00 36 1021.3
20260503201142 77 121 3.0 9.0 0.00 0.00 0.00 35 1021.4
20260503200641 76 281 3.0 9.0 0.00 0.00 0.00 41 1021.4
20260503200136 76 0 4.0 11.0 0.00 0.00 0.00 35 1021.7
20260503195641 76 81 5.0 9.0 0.00 0.00 0.00 38 1021.9
20260503195635 77 79 5.0 11.0 0.00 0.00 0.00 36 1021.8
20260503194635 76 135 4.0 9.0 0.00 0.00 0.00 34 1022.0
20260503194406 76 63 4.0 9.0 0.00 0.00 0.00 35 1022.0
20260503193637 76 17 4.0 9.0 0.00 0.00 0.00 36 1022.2
20260503193403 76 17 4.0 10.0 0.00 0.00 0.00 36 1022.3
20260503192630 76 346 3.0 10.0 0.00 0.00 0.00 34 1022.3
20260503192131 76 13 4.0 10.0 0.00 0.00 0.00 37 1022.5
20260503191632 76 28 4.0 10.0 0.00 0.00 0.00 35 1022.5
20260503191131 76 12 5.0 13.0 0.00 0.00 0.00 34 1022.7
20260503190630 76 31 5.0 13.0 0.00 0.00 0.00 35 1022.7
20260503190127 76 355 3.0 8.0 0.00 0.00 0.00 36 1022.9
20260503185626 75 133 3.0 10.0 0.00 0.00 0.00 36 1022.8
20260503185125 75 9 4.0 10.0 0.00 0.00 0.00 33 1022.9
20260503184858 75 254 6.0 12.0 0.00 0.00 0.00 36 1023.0
20260503184122 75 74 5.0 13.0 0.00 0.00 0.00 35 1023.1
20260503183623 75 55 4.0 13.0 0.00 0.00 0.00 33 1023.1
20260503183123 75 50 3.0 8.0 0.00 0.00 0.00 35 1023.1
20260503182623 75 28 2.0 10.0 0.00 0.00 0.00 37 1023.1
20260503182124 75 246 3.0 10.0 0.00 0.00 0.00 38 1023.1
20260503181622 76 30 3.0 9.0 0.00 0.00 0.00 34 1023.1
20260503181356 76 20 4.0 8.0 0.00 0.00 0.00 35 1023.1
20260503180620 76 217 4.0 8.0 0.00 0.00 0.00 37 1023.3
20260503180118 76 32 3.0 7.0 0.00 0.00 0.00 36 1023.3
20260503175620 76 123 3.0 9.0 0.00 0.00 0.00 38 1023.4
20260503175121 75 80 3.0 9.0 0.00 0.00 0.00 39 1023.4
20260503174618 75 38 4.0 11.0 0.00 0.00 0.00 36 1023.3
20260503174119 75 35 4.0 11.0 0.00 0.00 0.00 40 1023.4
20260503173614 75 346 4.0 10.0 0.00 0.00 0.00 36 1023.5
20260503173116 75 32 4.0 10.0 0.00 0.00 0.00 38 1023.5
20260503172616 74 86 4.0 10.0 0.00 0.00 0.00 39 1023.5
20260503172346 74 45 3.0 10.0 0.00 0.00 0.00 39 1023.4
20260503171615 74 90 4.0 10.0 0.00 0.00 0.00 37 1023.5
20260503171115 74 82 4.0 8.0 0.00 0.00 0.00 37 1023.5
20260503170616 74 100 3.0 6.0 0.00 0.00 0.00 37 1023.6
20260503170117 74 67 2.0 6.0 0.00 0.00 0.00 39 1023.6
20260503160105 74 57 1.0 4.0 0.00 0.00 0.00 42 1023.9
20260503150554 73 143 1.0 3.0 0.00 0.00 0.00 45 1024.5
20260503131024 59 321 0.0 2.0 0.00 0.03 0.00 82 1023.3
20260503130515 58 321 0.0 1.0 0.00 0.03 0.00 83 1023.3
20260503110431 49 78 0.0 0.0 0.00 0.07 0.00 92 1022.0
20260503090418 50 78 0.0 0.0 0.00 0.13 0.00 90 1022.0
20260503081359 51 78 0.0 0.0 0.00 0.17 0.00 89 1021.8
20260503080855 51 78 0.0 0.0 0.00 0.17 0.00 89 1021.7
20260503080625 51 78 0.0 0.0 0.00 0.17 0.00 89 1021.8
20260503072844 51 78 0.0 0.0 0.00 0.20 0.00 87 1021.4
20260503072342 51 78 0.0 0.0 0.00 0.20 0.00 86 1021.3
20260503071841 52 78 0.0 0.0 0.00 0.21 0.00 86 1021.2
20260503071335 52 78 0.0 0.0 0.00 0.21 0.00 86 1021.3
20260503070834 52 78 0.0 0.0 0.00 0.21 0.00 86 1021.2
20260503070332 52 78 0.0 0.0 0.00 0.22 0.00 86 1021.2
20260503060312 53 78 0.0 0.0 0.00 0.27 0.00 84 1021.4
20260503055036 53 78 0.0 0.0 0.00 0.28 0.00 83 1021.3
20260503054301 53 78 0.0 0.0 0.00 0.28 0.00 83 1021.3
20260503054033 54 78 0.0 0.0 0.00 0.29 0.00 82 1021.2
20260503053300 54 78 0.0 0.0 0.00 0.29 0.00 81 1021.2
20260503052755 54 78 0.0 0.0 0.00 0.30 0.00 80 1021.2
20260503052524 54 78 0.0 0.0 0.00 0.30 0.00 79 1021.3
20260503051750 54 78 0.0 0.0 0.00 0.31 0.00 79 1021.2
20260503051253 55 78 0.0 0.0 0.00 0.32 0.00 79 1021.2
20260503051248 54 78 0.0 0.0 0.00 0.31 0.00 79 1021.1
20260503050240 55 78 0.0 0.0 0.00 0.32 0.00 79 1021.2
20260503045740 55 78 0.0 0.0 0.00 0.33 0.32 77 1021.4
20260503045239 55 78 0.0 0.0 0.00 0.33 0.32 77 1021.2
20260503044737 55 78 0.0 0.0 0.00 0.34 0.32 76 1021.2
20260503044238 56 78 0.0 0.0 0.00 0.34 0.32 76 1021.3
20260503043732 56 78 0.0 0.0 0.00 0.35 0.32 76 1021.3
20260503043233 56 78 0.0 0.0 0.00 0.35 0.32 75 1021.3
20260503043002 56 78 0.0 0.0 0.00 0.36 0.32 75 1021.3
20260503042231 57 78 0.0 0.0 0.00 0.36 0.32 74 1021.3
20260503041731 57 78 0.0 0.0 0.00 0.37 0.32 73 1021.2
20260503041231 57 78 0.0 0.0 0.00 0.38 0.32 71 1021.1
20260503040725 58 78 0.0 0.0 0.00 0.38 0.32 70 1021.2
20260503040226 58 78 0.0 0.0 0.00 0.39 0.32 69 1021.3
20260503035728 59 78 0.0 0.0 0.00 0.40 0.32 69 1021.3
20260503035226 59 78 0.0 0.0 0.00 0.40 0.32 69 1021.2
20260503034725 60 78 0.0 0.0 0.00 0.41 0.32 67 1021.1
20260503034224 60 78 0.0 2.0 0.00 0.42 0.32 67 1021.1
20260503033949 60 78 0.0 2.0 0.00 0.42 0.32 65 1021.1
20260503033217 61 78 0.0 2.0 0.00 0.43 0.32 63 1021.1
20260503032716 61 78 0.0 2.0 0.00 0.44 0.32 62 1021.0
20260503032215 61 78 0.0 2.0 0.00 0.45 0.32 62 1020.9
20260503031714 61 5 1.0 3.0 0.00 0.46 0.32 62 1020.8
20260503031215 61 41 1.0 3.0 0.00 0.47 0.32 62 1020.7
20260503030709 61 23 2.0 5.0 0.00 0.47 0.32 63 1020.7
20260503030203 60 34 3.0 5.0 0.00 0.48 0.32 63 1020.8
20260503025657 60 42 3.0 5.0 0.00 0.49 0.32 66 1020.8
20260503025157 61 22 2.0 4.0 0.00 0.50 0.32 65 1020.8
20260503024658 61 18 2.0 4.0 0.00 0.51 0.32 64 1020.8
20260503024157 62 28 1.0 4.0 0.00 0.52 0.32 62 1020.9
20260503023658 62 15 1.0 3.0 0.00 0.53 0.32 61 1020.8
20260503023158 62 15 0.0 2.0 0.00 0.54 0.32 59 1020.8
20260503022652 61 69 0.0 2.0 0.00 0.55 0.32 60 1020.6
20260503022425 61 69 0.0 2.0 0.00 0.56 0.32 60 1020.7
20260503021653 61 25 1.0 2.0 0.00 0.57 0.32 61 1020.6
20260503021154 61 25 1.0 3.0 0.00 0.58 0.32 61 1020.5
20260503020653 61 57 1.0 3.0 0.00 0.60 0.32 61 1020.5
20260503020425 62 25 1.0 3.0 0.00 0.61 0.32 61 1020.4
20260503015650 62 31 1.0 3.0 0.00 0.62 0.32 60 1020.4
20260503015151 62 20 1.0 3.0 0.00 0.63 0.32 61 1020.3
20260503014922 62 49 1.0 4.0 0.00 0.64 0.32 59 1020.2
20260503014151 62 36 1.0 4.0 0.00 0.65 0.32 59 1020.2
20260503013651 63 15 1.0 4.0 0.00 0.66 0.32 59 1020.1
20260503013424 63 30 1.0 2.0 0.00 0.68 0.32 57 1020.1
20260503012915 64 30 1.0 2.0 0.00 0.69 0.32 56 1020.0
20260503012144 64 355 0.0 5.0 0.00 0.70 0.32 56 1020.0
20260503011644 65 351 0.0 5.0 0.00 0.72 0.32 53 1019.9
20260503011144 65 351 1.0 5.0 0.00 0.73 0.32 52 1020.0
20260503010642 65 351 2.0 5.0 0.00 0.74 0.32 54 1019.8
20260503010142 66 39 2.0 4.0 0.00 0.76 0.32 52 1019.7
20260503005642 66 346 1.0 3.0 0.00 0.77 0.32 52 1019.7
20260503005138 66 30 1.0 6.0 0.00 0.79 0.32 51 1019.7
20260503004638 67 30 2.0 6.0 0.00 0.80 0.32 50 1019.7
20260503004139 67 57 2.0 7.0 0.00 0.82 0.32 50 1019.7
20260503003636 67 28 1.0 9.0 0.00 0.83 0.32 49 1019.6
20260503003135 68 349 2.0 9.0 0.00 0.84 0.32 48 1019.5
20260503002901 68 0 2.0 12.0 0.00 0.86 0.32 47 1019.4
20260503002129 68 65 3.0 12.0 0.00 0.87 0.32 47 1019.4
20260503001630 69 26 4.0 13.0 0.00 0.89 0.32 46 1019.2
20260503001131 69 5 4.0 13.0 0.00 0.91 0.32 45 1019.2
20260503000630 69 24 3.0 9.0 0.00 0.92 0.32 45 1019.2
20260503000402 69 55 3.0 10.0 0.00 0.94 0.32 47 1019.2
20260502235855 69 306 3.0 10.0 0.00 0.96 0.32 47 1019.1
20260502235122 70 0 3.0 11.0 0.00 0.98 0.32 46 1019.0
20260502234621 70 12 3.0 11.0 0.00 0.99 0.32 45 1018.9
20260502234350 70 55 2.0 7.0 0.00 1.01 0.32 47 1018.7
20260502233619 70 77 3.0 14.0 0.00 1.03 0.32 46 1018.6
20260502233112 70 0 4.0 14.0 0.00 1.05 0.32 46 1018.6
20260502232609 70 32 4.0 14.0 0.00 1.07 0.32 46 1018.5
20260502232108 70 33 3.0 14.0 0.00 1.09 0.32 44 1018.5
20260502231608 71 28 4.0 13.0 0.00 1.11 0.32 45 1018.5
20260502231107 71 34 5.0 13.0 0.00 1.13 0.32 45 1018.5
20260502230608 71 38 5.0 12.0 0.00 1.14 0.32 44 1018.4
20260502230106 71 25 6.0 14.0 0.00 1.16 0.32 43 1018.3
20260502225606 71 5 5.0 14.0 0.00 1.18 0.32 44 1018.2
20260502225105 71 355 5.0 14.0 0.00 1.20 0.32 44 1018.2
20260502224606 71 74 6.0 14.0 0.00 1.22 0.32 42 1018.2
20260502224105 71 63 6.0 16.0 0.00 1.24 0.32 43 1018.2
20260502223607 71 86 6.0 16.0 0.00 1.26 0.32 44 1018.1
20260502223106 71 21 5.0 14.0 0.00 1.28 0.32 42 1018.2
20260502222600 71 5 6.0 14.0 0.00 1.30 0.32 43 1018.1
20260502222059 71 32 6.0 15.0 0.00 1.33 0.32 43 1018.1
20260502221556 71 32 5.0 15.0 0.00 1.35 0.32 42 1018.1
20260502221326 71 35 5.0 15.0 0.00 1.36 0.32 43 1018.0
20260502220555 72 351 4.0 15.0 0.00 1.39 0.32 47 1018.0
20260502220049 72 11 5.0 15.0 0.00 1.40 0.32 46 1017.9
20260502215820 72 30 5.0 15.0 0.00 1.42 0.32 45 1017.8
20260502215049 71 337 6.0 15.0 0.00 1.45 0.32 45 1017.7
20260502214548 71 56 6.0 17.0 0.00 1.46 0.32 45 1017.9
20260502214318 72 11 4.0 17.0 0.00 1.48 0.32 44 1017.8
20260502213820 71 5 5.0 16.0 0.00 1.50 0.32 46 1017.7
20260502213319 71 78 6.0 18.0 0.00 1.54 0.32 44 1017.8
20260502213044 71 350 6.0 16.0 0.00 1.52 0.32 44 1017.8